Hourly Data Report for October 02, 2016

All times are specified in Local Standard Time (LST). Add 1 hour to adjust for Daylight Saving Time where and when it is observed.

KITCHENER/WATERLOO
ONTARIO

43°27'39.000" N
80°22'43.000" W
321.60 m
6144239
71368
YKF

Download Data

Hourly Data (October 2016)
Hourly Data Report for October 2, 2016
Temp Definition
°C
Dew Point Temp Definition
°C
Rel Hum Definition
%
Wind Dir Definition
10's deg

Wind Spd Definition
km/h
Visibility Definition
km
Stn Press Definition
kPa
Hmdx Definition


Wind Chill Definition


Weather Definition


TIME
00:00 Legend Double Dagger 14.2 13.7 97 10 9 0.6 97.88     Fog
01:00 Legend Double Dagger 14.2 13.7 97 11 8 0.4 97.86     Fog
02:00 Legend Double Dagger 14.2 13.9 98 8 8 0.4 97.85     Rain,Fog
03:00 Legend Double Dagger 14.1 13.8 98   0 0.4 97.83     Rain,Fog
04:00 Legend Double Dagger 13.8 13.5 98 LegendMM 4 4.0 97.82     Fog
05:00 Legend Double Dagger 13.5 13.2 98 19 5 4.0 97.82     Rain,Fog
06:00 Legend Double Dagger 13.1 12.8 98 8 9 4.8 97.81     Rain,Fog
07:00 Legend Double Dagger 12.3 12.0 98 LegendMM 4 0.2 97.81     Fog
08:00 Legend Double Dagger 14.3 14.0 98   0 16.1 97.76     LegendNANA
09:00 Legend Double Dagger 14.6 13.8 95 26 5 16.1 97.77     LegendNANA
10:00 Legend Double Dagger 15.2 13.6 90 LegendMM 4 16.1 97.76     LegendNANA
11:00 Legend Double Dagger 15.9 13.5 85 16 8 16.1 97.78     Rain
12:00 Legend Double Dagger 16.7 13.3 80 LegendMM 4 16.1 97.76     LegendNANA
13:00 Legend Double Dagger 17.6 12.5 72 23 5 16.1 97.71     LegendNANA
14:00 Legend Double Dagger 17.3 12.4 73 26 8 16.1 97.66     LegendNANA
15:00 Legend Double Dagger 15.7 13.7 88 23 5 12.9 97.65     Rain
16:00 Legend Double Dagger 15.9 14.1 89 29 8 16.1 97.66     Rain
17:00 Legend Double Dagger 14.9 13.6 92 23 8 16.1 97.70     LegendNANA
18:00 Legend Double Dagger 14.6 13.5 93 27 11 16.1 97.74     LegendNANA
19:00 Legend Double Dagger 13.6 12.8 95 27 5 12.9 97.76     LegendNANA
20:00 Legend Double Dagger 12.8 12.2 96 28 8 8.1 97.79     Fog
21:00 Legend Double Dagger 12.6 12.1 97 LegendMM 4 4.8 97.81     Fog
22:00 Legend Double Dagger 13.1 12.6 97 25 4 4.8 97.82     Fog
23:00 Legend Double Dagger 13.7 13.1 96 27 8 4.8 97.82     Fog

Notes on Data Quality.

Legend

  • E = Estimated
  • M = Missing
  • NA = Not Available
  • ‡ = Partner data that is not subject to review by the National Climate Archives
Date modified: